Terminal Aerodrome Forecast
Issued by NWS Columbia, SC

Home | Current Version | Previous Version | Text Only | Print | Product List | Glossary On
Versions: 1 2 3 4 5 6 7 8 9 10 11 12 13 14 15 16 17 18 19 20 21 22 23 24 25 26 27 28 29 30 31 32 33 34 35 36 37 38 39 40 41 42 43 44 45 46 47 48 49
000
FTAK31 PAJN 241142 RRA
TAFAGS
TAF
PAGS 241142Z 2412/2512 VRB03KT P6SM OVC060
     FM241600 12004KT 3SM -SN OVC025
     FM242000 12008KT 1 1/2SM -SN BR OVC015
     FM250000 35004KT 4SM -SHSN BR OVC020
     FM250500 33004KT P6SM VCSH SCT020 OVC040
      AMD LTD TO CLD VIS AND WIND=

USA.gov is the U.S. government's official web portal to all federal, state and local government web resources and services.